Orbital Elements at Epoch 2459200.5 (2020-Dec-17.0) TDB
Reference: JPL 16 (heliocentric ecliptic J2000)
Element | Value | Uncertainty (1-sigma) | Units |
e | .03325145593283584 | 6.9846e-08 | |
a | 5.228076651413845 | 1.4631e-07 | au |
q | 5.05423549102587 | 3.1963e-07 | au |
i | 6.118388843079372 | 5.1145e-06 | deg |
node | 241.0689988332221 | 6.2093e-05 | deg |
peri | 295.4906958604503 | 0.00010507 | deg |
M | 191.0235849246648 | 8.8969e-05 | deg |
tp | 2461249.938723137115 (2026-Jul-28.43872314) | 0.0011341 | TDB |
period | 4366.277625196551 11.95 | 0.00018329 5.018e-07 | d yr |
n | .0824500938562729 | 3.4611e-09 | deg/d |
Q | 5.401917811801821 | 1.5118e-07 | au |
|
| | Orbit Determination Parameters
Additional Information
|